User: anonymous   Login
Location: Les Thiberg�res
(47.8554°N, 1.0978°W)
Time: 05:28:53
(UTC+00:00)
Language:

Cosmos 1842 Rocket - Orbit

View from above orbital plane
View from above orbital plane
View from above satellite
View from above satellite

Ground track
Ground track

The orbit data is extracted from the following two-line orbital elements,

1 17912U 87038B   20156.84604028 +.00000047 +00000-0 +28841-5 0  9991
2 17912 082.5013 113.5334 0018692 261.4417 098.4680 14.83039402767258
Epoch (UTC): 04 June 2020 20:18:17
Eccentricity: 0.0018692
inclination: 82.5013°
perigee height: 606 km
apogee height: 633 km
right ascension of ascending node: 113.5334°
argument of perigee: 261.4417°
revolutions per day: 14.83039402
mean anomaly at epoch: 98.4680°
orbit number at epoch: 76725

The dashed part of the orbit path shows where the satellite is in the earth's shadow,  

DLR